User: anonymous   Login
Location: Lichtensteig
(47.3376°N, 9.0841°E)
Time: 13:54:43
(UTC+00:00)
Language:

Meteor 1-25 Rocket - Orbit

View from above orbital plane
View from above orbital plane
View from above satellite
View from above satellite

Ground track
Ground track

The orbit data is extracted from the following two-line orbital elements,

1  8846U 76043B   21132.05341389  .00000041  00000-0  16827-4 0  9991
2  8846  81.2210   5.3200 0038124 318.2116  41.6143 14.08580629311661
Epoch (UTC): 12 May 2021 01:16:54
Eccentricity: 0.0038124
inclination: 81.2210°
perigee height: 836 km
apogee height: 892 km
right ascension of ascending node: 5.3200°
argument of perigee: 318.2116°
revolutions per day: 14.08580629
mean anomaly at epoch: 41.6143°
orbit number at epoch: 31166

The dashed part of the orbit path shows where the satellite is in the earth's shadow,  

DLR